Back to catalog

STARLINK-6159

AliveCommunicationsVLEO
NORAD 56381·PAYLOAD·🇺🇸 United States

Launched May 4, 2023 from Cape Canaveral Space Force Station

Loading…

Next Passes (next 24 hours)

TLE

FreshSource: CelesTrak SupGP

Epoch: Sep 14, 2026, 13:44 UTC

1 56381C 23061H   26257.57270833 -.00037517  00000+0 -13589-2 0  2571
2 56381  43.0000 211.4888 0000791 258.2952  90.0061 15.27596394    12

Track STARLINK-6159 in real time with AllMySat

Download on the App Store